Location: Éparcy
(49.8754°N, 4.0594°E)
Time: 21:53:48
(UTC+00:00)

Daily predictions for brighter satellites

Satellite Brightness Start Highest point End
(mag) Time Altitude Azimuth Time Altitude Azimuth Time Altitude Azimuth
Cosmos 2297 Rocket 3.7 20:39:03 10° SE 20:42:46 18° E 20:46:30 10° ENE
Aureole 3 4.0 20:39:14 10° S 20:43:53 75° E 20:49:44 10° NNE
Cosmos 1707 Rocket 3.8 20:39:46 10° SSW 20:44:11 76° W 20:48:38 10° N
Cosmos 1356 Rocket 4.0 20:40:09 10° SSW 20:44:19 61° WNW 20:48:29 10° N
Cosmos 2219 Rocket 2.7 20:43:32 10° NW 20:49:06 57° WSW 20:54:39 10° S
ATLAS CENTAUR R/B 3.9 20:49:59 10° W 20:52:55 23° NW 20:55:56 10° NNE
BREEZE-M DEB (TANK) 3.7 20:49:03 10° WSW 20:52:58 76° SSE 21:07:57 10° E
ATLAS 2AS CENTAUR R/B 3.9 20:48:23 10° NW 20:54:16 32° WSW 21:00:00 10° S
Landsat 4 3.6 20:52:14 10° SSE 20:55:37 64° ENE 20:59:01 10° N
Cosmos 1733 Rocket 4.1 20:52:47 10° NNW 20:57:01 45° W 21:01:14 10° SSW
Cosmos 1455 2.0 20:55:55 10° N 20:59:26 71° E 21:02:55 10° SSE
Spot 2 Rocket 3.6 20:57:23 10° SSE 21:02:29 84° WSW 21:07:37 10° NNW
Cosmos 1408 4.0 21:01:32 11° SE 21:03:18 16° E 21:05:17 10° NE
SPOT 3 Rocket 3.6 20:59:18 10° SSE 21:04:27 87° ENE 21:09:41 10° NNW
Resurs 01 Rocket 4.5 21:07:29 10° WSW 21:08:52 11° W 21:10:14 10° WNW
Iridium 51 4.4 21:06:25 10° S 21:10:39 87° E 21:14:39 10° N
SeaSat 1 2.5 21:08:35 11° SSE 21:13:19 86° WSW 21:18:17 10° NNW
Cosmos 2360 Rocket 4.3 21:14:26 10° NW 21:18:21 19° W 21:22:14 10° SW
Cosmos 158 Rocket 4.0 21:13:28 10° NNW 21:18:46 85° WSW 21:23:25 13° SSE
Cosmos 1953 2.5 21:15:03 10° NNW 21:18:50 63° W 21:22:35 10° S
Cosmos 1908 Rocket 3.6 21:14:45 10° NNW 21:19:06 78° W 21:23:21 10° S
COSMOS 2428 2.9 21:14:03 10° NNW 21:19:43 68° WSW 21:25:01 12° SSE
Cosmos 2208 Rocket 4.0 21:15:10 10° NNW 21:20:22 80° WSW 21:25:05 13° SSE
NOSS 8 (H) 4.4 21:17:12 10° SSW 21:20:58 58° SE 21:24:00 10° NE
Cosmos 1782 Rocket 3.7 21:18:44 10° N 21:23:03 62° ENE 21:26:41 14° SSE
CENTAUR R/B 3.7 21:23:46 13° SSE 21:27:10 22° ESE 21:32:00 10° ENE
Ariane Rocket 3.5 21:22:56 10° S 21:27:56 56° W 21:32:57 10° NNW
Cosmos 1300 Rocket 3.7 21:24:07 10° N 21:28:24 59° ENE 21:31:51 15° SSE
EXPRESS MD2 1.9 21:27:01 10° W 21:29:33 65° SSW 21:30:59 18° ESE
Cosmos 2084 Rocket 3.7 21:28:02 10° SSW 21:32:07 44° SE 21:36:05 10° NE
Cosmos 1486 Rocket 4.0 21:32:39 10° S 21:37:47 65° ESE 21:42:57 10° NNE
Cosmos 1315 Rocket 4.1 21:35:26 10° SW 21:39:12 40° WNW 21:43:01 10° N
Cosmos 405 Rocket 3.9 21:38:02 10° N 21:41:24 30° ENE 21:43:50 16° SE
GP-B 3.1 21:39:16 10° N 21:43:40 68° E 21:47:06 16° S
MetOp-A 4.1 21:40:03 14° SSE 21:44:34 81° WSW 21:49:44 10° NNW
BREEZE-M DEB (TANK) 2.9 21:39:37 10° W 21:44:46 51° N 21:47:01 10° ENE
ARIANE 5 R/B 3.3 21:41:49 16° SE 21:44:59 42° ENE 21:49:07 10° N
NOSS 0 Rocket 4.2 21:39:52 10° NW 21:46:03 64° WSW 21:51:08 16° SSE
SJ 16-02 3.8 21:42:59 10° WSW 21:46:29 23° NW 21:49:59 10° N
BlueWalker 3 2.5 21:44:25 10° W 21:48:08 58° NNW 21:51:50 10° ENE
Cosmos 371 Rocket 3.2 21:44:19 10° SSW 21:49:05 71° ESE 21:53:54 10° NNE
SL-4 R/B 3.4 21:46:26 10° W 21:49:32 22° SW 21:51:26 16° S
USA 234 3.4 21:43:42 10° ENE 21:50:06 54° SE 21:56:28 10° SW
Terra 3.5 21:49:18 10° SSW 21:53:16 26° W 21:57:14 10° NW
Spot 1 4.5 21:50:33 10° NNE 21:55:16 79° WNW 22:00:13 10° SSW
NOSS 8 (A) 4.3 21:55:38 10° NW 21:58:35 75° NE 22:00:43 21° SE
SL-16 R/B 3.2 21:53:47 10° NNW 21:59:10 41° NE 22:04:11 12° ESE
Cosmos 1354 Rocket 4.3 21:55:11 16° S 21:59:12 48° ESE 22:04:18 10° NNE
H-2A R/B 3.7 21:56:27 15° ESE 21:59:20 32° ENE 22:03:04 10° N
Landsat 5 3.8 21:56:40 10° N 22:00:46 68° WNW 22:04:59 10° SSW
Cosmos 2237 Rocket 2.2 21:55:11 10° NNW 22:00:52 78° WSW 22:05:00 19° SSE
COSMOS 2455 3.0 21:58:18 10° SW 22:04:20 79° NW 22:10:25 10° NE
Cosmos 1242 Rocket 4.4 22:03:01 10° WSW 22:05:05 19° WNW 22:07:11 10° NNW
Cosmos 1745 Rocket 4.1 21:58:46 10° S 22:05:08 82° W 22:11:32 10° N
USA 281 3.5 22:00:04 15° SE 22:05:34 64° ENE 22:12:05 10° NNW
CZ-4C R/B 2.0 22:01:54 10° SW 22:06:30 82° NW 22:12:24 10° NE
Cosmos 2227 Rocket 2.7 22:03:20 18° S 22:07:10 42° ESE 22:12:28 10° NE
Nadezhda 1 Rocket 4.4 22:01:36 10° NNW 22:07:45 61° W 22:13:02 14° S
Meteor 2-5 Rocket 3.9 22:05:17 18° S 22:09:41 60° E 22:15:21 10° NNE
Cosmos 2151 Rocket 4.2 22:07:18 10° N 22:11:31 44° ENE 22:14:08 21° SE
Cosmos 773 Rocket 4.4 22:09:26 10° NNW 22:14:29 55° WSW 22:18:03 19° S
Cosmos 1980 4.0 22:09:46 10° NW 22:15:20 58° WSW 22:19:14 20° S
Okean 2 Rocket 3.7 22:11:54 10° N 22:16:14 45° ENE 22:18:55 21° SE
Cosmos 304 Rocket 3.8 22:13:31 10° SSW 22:18:16 78° WNW 22:23:04 10° NNE
Cosmos 2297 Rocket 2.2 22:20:26 10° SSW 22:26:05 83° WNW 22:31:47 10° NNE
ALOS 2 3.5 22:25:43 19° SE 22:28:25 41° ENE 22:32:33 10° N
MINOTAUR 4 R/B 3.6 22:27:47 10° NNE 22:30:39 56° ESE 22:31:27 39° SSE
CZ-2C R/B 3.6 22:29:33 10° NNE 22:34:00 86° WNW 22:37:07 20° SSW
Cosmos 2098 Rocket 4.0 22:28:16 10° N 22:34:50 83° W 22:38:52 22° S
Cosmos 1461 4.2 22:34:55 21° ESE 22:35:12 21° ESE 22:38:09 10° ENE
Cosmos 1703 3.5 22:33:06 20° SSW 22:35:28 59° WNW 22:39:07 10° N
Cosmos 1408 4.0 22:33:30 12° SW 22:35:47 26° WNW 22:38:23 10° NNW
NOSS 3-2 (A) 3.8 22:33:40 23° SSE 22:36:18 38° ESE 22:41:49 10° NE
Cosmos 2074 Rocket 4.5 22:33:32 21° SSE 22:37:22 47° E 22:43:18 10° NNE
Cosmos 2181 Rocket 4.0 22:31:31 10° N 22:37:42 82° E 22:41:46 23° SSE
Cosmos 2219 3.7 22:37:53 23° SSE 22:40:53 42° ESE 22:46:09 10° NE
H-2A R/B 4.0 22:41:28 10° NE 22:43:50 15° E 22:45:13 13° ESE
Cosmos 1777 Rocket 4.2 22:39:06 11° SSW 22:44:08 71° WNW 22:49:26 10° NNE
Orbus 7S? 4.4 22:42:35 10° NW 22:45:11 30° NNE 22:47:42 10° E
Cosmos 332 Rocket 3.8 22:41:57 19° SSW 22:45:27 85° ESE 22:50:23 10° NNE
Cosmos 1825 2.2 22:44:58 34° SSE 22:46:06 52° E 22:49:27 10° NNE
BREEZE-M DEB (TANK) 3.8 22:42:54 10° W 22:46:13 81° S 22:56:48 10° ESE
Cosmos 2263 Rocket 3.0 22:44:09 23° SSE 22:46:40 34° ESE 22:51:38 10° NE
Meteor 1-24 Rocket 3.8 22:42:45 17° SSW 22:47:14 73° WNW 22:52:45 10° N
NOSS 3-2 (C) 4.5 22:46:16 19° SE 22:47:50 22° ESE 22:52:14 10° ENE
Cosmos 2221 Rocket 3.7 22:46:45 28° S 22:48:59 64° E 22:53:22 10° NNE
Sich 1 Rocket 3.5 22:49:27 10° NNW 22:53:50 81° W 22:56:04 29° S
Okean 1 Rocket 3.1 22:50:56 10° N 22:55:20 70° E 22:57:31 29° SSE
Cosmos 1538 Rocket 4.0 22:50:30 10° NNW 22:55:45 89° ENE 22:58:51 26° SSE
PSLV R/B 4.1 22:52:25 10° N 22:56:23 67° WNW 22:58:45 23° SSW
Cosmos 1263 4.0 22:54:47 10° N 22:57:57 85° ENE 22:58:45 45° SSE
Cosmos 1818 3.6 22:55:14 10° NW 23:00:45 80° NE 23:04:38 20° SE
Cosmos 1892 2.4 23:03:07 34° SSW 23:04:31 80° W 23:08:04 10° N
Spot 4 4.0 23:03:31 27° S 23:06:06 67° WSW 23:10:56 10° NNW
Cosmos 1937 Rocket 4.5 23:09:52 23° SE 23:12:05 32° ESE 23:16:41 10° NE
Nadezhda 3 Rocket 4.1 23:07:32 10° N 23:13:49 74° E 23:17:41 24° SSE
Cosmos 1025 Rocket 3.3 23:12:05 30° SSE 23:13:54 54° E 23:18:06 10° NNE
Cosmos 967 Rocket 4.5 23:11:00 18° SSW 23:16:02 75° SE 23:22:30 10° NE
Cosmos 405 Rocket 4.3 23:13:18 10° NW 23:16:24 24° W 23:18:05 18° SW
CENTAUR R/B 2.5 23:10:53 10° SW 23:16:41 86° NW 23:24:00 10° NE
Cosmos 1975 Rocket 4.2 23:15:39 22° SE 23:17:30 31° E 23:21:26 10° NNE
ARIANE 5 R/B 4.2 23:19:17 16° SW 23:21:33 24° W 23:25:08 10° NW
Cosmos 923 Rocket 4.1 23:17:30 10° NNW 23:22:47 71° ENE 23:26:01 23° SE
Cosmos 1455 Rocket 3.3 23:20:06 10° N 23:24:32 62° ENE 23:26:44 28° SSE
BlueWalker 3 2.7 23:22:57 10° WNW 23:26:38 53° N 23:30:19 10° E
Cosmos 1328 3.7 23:25:24 34° SSW 23:27:00 84° W 23:30:54 10° N
Cosmos 1378 Rocket 4.5 23:25:05 19° SW 23:27:51 42° WNW 23:32:04 10° N
Cosmos 1898 Rocket 3.7 23:25:20 28° S 23:27:51 57° ESE 23:32:55 10° NNE
Aureole 1 Rocket 3.1 23:26:55 32° S 23:28:46 74° ESE 23:33:54 10° NNE
Cosmos 2184 Rocket 4.1 23:26:26 23° SSW 23:30:38 80° W 23:37:04 10° N
Meteor 1-21 Rocket 4.3 23:27:44 27° S 23:30:54 67° E 23:36:29 10° NNE
Cosmos 1674 Rocket 4.3 23:29:17 21° SW 23:31:51 44° WNW 23:36:00 10° N
USA 234 3.6 23:26:46 10° ENE 23:33:16 69° NNW 23:39:45 10° WSW
H-2A R/B 3.7 23:32:26 22° SW 23:34:14 30° W 23:37:58 10° NW
SL-16 R/B 2.8 23:38:00 10° NW 23:43:19 42° WSW 23:46:02 25° SSW
Cosmos 2237 Rocket 4.3 23:41:17 10° WNW 23:43:57 14° W 23:46:36 10° SW
Cosmos 2228 4.5 23:41:06 10° N 23:44:55 30° ENE 23:47:43 15° SE
Cosmos 1603 4.3 23:43:18 10° NNW 23:48:59 56° NE 23:54:09 12° SE
Cosmos 2154 Rocket 4.1 23:45:18 23° SSW 23:49:21 71° WNW 23:55:42 10° N
Cosmos 1943 3.2 23:44:21 10° NNW 23:50:00 82° ENE 23:53:53 21° SSE
USA 281 4.2 23:46:56 20° SSW 23:50:27 32° WSW 23:56:14 10° NW
Cosmos 2227 Rocket 3.3 23:45:55 10° WSW 23:51:15 41° NW 23:56:36 10° NNE
Cosmos 1867 4.4 23:50:23 26° SSE 23:52:34 36° ESE 23:57:31 10° NE
Meteor 2-1 Rocket 4.4 23:47:02 10° N 23:52:57 76° ENE 23:56:34 24° SSE
PSLV R/B 3.5 23:48:45 10° N 23:52:57 75° WNW 23:54:55 30° SSW
Cosmos 2082 3.7 23:50:39 23° SSW 23:54:19 85° WNW 00:00:00 10° NNE
